Reflectivity
6 -12 9 9 2 4 10 6 -4 16 19 19 14 -6 -20 0 19 15 -1 -14 28 25 -20 -15 -13 -20 -20 -9 -4 20 -20 -15 19 -13 -20 -20 -20 -18 -3 23 12 0 -9 -11 -1 16 -15 -20 -4 -2 39 19 -20 -20
-14 7 2 3 1 3 11 -5 -0 -9 -17 22 5 -17 -19 8 17 -11 13 -15 -5 28 2 -20 -20 -20 -20 -18 22 11 18 17 7 -20 -20 -20 -20 14 26 -15 14 -20 -18 -18 -20 -20 -19 -20 -20 -18 -18 -20 -20 -20
9 9 -2 7 9 -0 4 2 6 7 1 4 9 9 5 -9 17 15 -1 11 9 28 -1 -17 -20 -17 -20 -0 40 15 20 35 22 17 -20 15 -17 -20 15 -14 16 13 13 -7 13 13 6 27 -12 20 -3 -20 -20 -20
10 2 -8 5 3 -13 3 7 8 3 6 14 7 9 10 -8 9 11 -1 5 8 -0 -20 -20 -16 -5 -20 -20 16 28 -6 8 21 15 -20 -20 -20 1 -0 33 -20 -5 28 29 24 9 -5 -20 -10 -7 -20 -20 -20 -20
4 -4 9 6 7 5 11 10 11 6 -0 -20 15 12 14 15 12 18 5 8 -20 -19 -0 -8 -20 -20 -20 -20 -19 22 1 21 -10 -20 -20 -20 8 3 25 20 -8 -2 27 35 24 36 26 -11 -20 -13 -20 -20 -20 -20
7 11 7 16 17 11 9 18 11 0 3 5 -3 14 18 14 24 32 38 19 7 -20 6 -18 15 -20 -20 -2 -20 -20 -9 23 -19 -20 -20 -3 -0 31 29 -20 -20 -20 8 31 28 29 12 -20 -20 -20 -20 -20 -20 -20
12 14 19 14 7 22 15 5 5 -16 9 10 3 11 14 16 32 30 14 -3 5 0 31 10 -7 -15 -17 -20 -20 -16 -20 11 -14 18 -4 12 27 16 20 3 -6 24 6 -4 4 -20 -20 -20 -20 -20 -20 -20 -20 -20
16 12 9 12 12 21 13 12 13 5 -4 -2 -4 18 24 29 31 18 -1 6 -2 17 16 -5 10 20 -0 21 19 20 15 7 11 7 4 24 28 17 6 -20 3 10 9 10 -3 -20 -20 -20 -20 -20 -20 -20 -20 -20
15 12 5 5 23 4 17 22 12 23 20 6 16 24 35 35 38 21 2 10 7 8 -9 -19 -15 11 24 23 18 14 0 15 33 -3 -12 5 8 21 -1 -19 2 13 -19 -19 -20 -20 -20 -20 -20 -20 -20 -20 -20 -20
18 4 -19 12 14 17 25 5 12 23 35 20 26 31 29 28 24 28 34 36 32 20 -20 30 -16 27 26 -11 7 18 -9 0 9 -5 -4 -3 -18 -16 -20 -20 -20 -20 -20 -20 -20 -20 -20 -20 -18 -20 -20 -20 -20 -20
18 23 9 11 1 27 14 15 6 13 19 21 30 32 24 14 26 32 17 13 -1 -9 -20 -20 14 -14 5 32 -11 -20 -20 7 -20 -5 -5 -15 -5 6 -19 -20 -6 0 -20 -20 -20 -20 -20 -19 -19 -19 -20 -20 -20 -20
26 21 -9 -16 -10 13 20 36 34 23 26 9 21 28 18 34 32 16 -16 -2 -20 1 -20 -20 24 -17 -20 12 33 5 -20 -11 -13 -20 -4 -18 1 -19 -20 -20 -20 -20 -20 -20 -20 -20 -20 -20 -20 -20 -20 -20 -20 -16
28 -6 -20 -20 -15 -20 -3 22 32 25 17 9 2 21 17 12 9 -16 -20 -13 -18 -19 -12 -8 -15 -20 -20 -20 1 31 -20 -20 -20 -20 -18 -20 -19 -20 -20 -20 -20 -20 -20 -20 -20 -20 -20 -20 -20 -20 -20 -20 -20 -20
-20 -20 -20 -20 10 -14 -10 -13 -20 -3 -3 -10 -19 -20 -20 -20 -19 -18 -20 -14 -16 -20 -20 -20 -20 -20 -20 -20 25 13 -20 -20 -17 -20 -20 -18 -20 -20 -20 -20 -20 -20 -20 -19 -20 -20 -20 -20 -20 -20 -20 -20 -20 -20
-20 -20 -20 -20 -20 -20 -20 -20 -20 -20 -20 -20 -20 -10 -20 -16 -10 -15 -18 -18 -17 -19 -20 -15 -13 1 -20 -16 16 -0 -18 -20 -20 -20 -17 -18 -20 -20 -20 -6 -20 -20 -20 -20 -20 -20 -20 -20 -20 -20 -20 -20 -20 -20
-20 -20 -20 -20 -20 -20 -19 -13 -14 -19 -20 -20 -20 -6 -13 -20 -20 -20 -20 -20 -19 -20 -16 -1 -20 -20 -20 -20 -20 -20 -19 -20 -12 -8 -20 -20 -20 -20 -20 -20 -20 -20 -20 -20 -20 -20 -20 -20 -20 -20 -20 -20 -20 -20
-20 -18 -20 -20 -6 6 -19 -20 -20 -20 -20 -20 -1 5 11 7 -10 -20 -10 -20 -2 8 -5 -13 -20 -5 -20 -8 12 8 -8 -14 -20 -20 -20 -20 -20 -20 -6 -9 -20 -20 -20 -19 -6 -4 -1 -20 -20 -20 -20 -20 -20 -20
-20 -20 -20 -20 -9 -20 -20 -20 -20 -20 -20 -20 -20 -7 -6 -20 -3 -7 4 0 5 6 14 19 12 -20 -20 -20 -19 -2 -20 -20 -20 -20 -20 -20 -20 -20 -20 -20 -20 -20 -20 -20 -20 -20 -20 -20 -20 -20 -20 -20 -20 -20
-20 -20 -20 -20 -20 -20 -20 -20 -20 -6 4 -2 1 4 -11 4 -6 -9 -11 -15 -15 -20 -20 -20 -20 -20 -17 -8 -20 -20 -16 -20 -20 -20 -20 -20 -20 -20 -20 -20 -20 -20 -20 -20 -20 -15 -16 -20 -19 -15 -12 -20 -20 -20
-20 -20 -20 -20 -20 -20 -20 -11 -20 -20 -20 -15 -5 -20 -14 7 -19 -20 -20 -20 -20 -20 -20 -20 -20 -10 -1 0 -20 -20 -6 -20 -20 -20 -20 -11 -6 -3 -9 -20 -20 -20 -20 -20 -20 -20 -20 -20 -20 -20 -19 -20 -20 -20
-20 -20 -20 -20 -20 -20 -20 -20 -15 -20 -20 -3 -20 -20 -20 -20 -20 -20 -20 -20 -20 1 -2 -11 -11 -20 -20 -20 -20 -20 -20 -7 -5 -20 -20 -5 -20 -16 -20 6 9 -18 -20 -20 -20 -20 -20 -20 -20 -20 -20 -20 -20 -20
-20 -20 -20 -20 -20 -20 -20 -17 -20 -19 -20 -7 -20 -1 -20 -20 -20 -20 -20 -20 -1 -7 -5 -9 -11 -20 -20 -17 -20 -20 -20 -20 -20 -20 -20 -7 -20 -20 -19 -20 -20 -20 -20 -20 -20 -20 -20 -20 -20 -20 -20 -20 -20 -20
-20 -20 -20 -20 -20 -20 -20 -20 -20 -7 -20 -16 -17 -18 -20 -20 -15 -20 -20 -1 5 -10 -20 -20 -20 -20 -20 -20 -20 -20 -20 -20 -13 -20 -20 -20 -20 -20 -20 -20 -19 -20 -20 -20 -20 -20 -20 -20 -20 -20 -20 -20 -20 -20
-20 -20 -20 -20 -20 -11 -20 -20 -20 -20 -18 -20 -20 -20 -20 -20 -20 -20 -17 6 6 -20 -20 -20 -20 -6 -17 -20 -20 -20 -13 -20 -20 -20 -20 -20 -20 -20 -20 -20 -20 -20 -20 -20 -20 -20 -20 -20 -20 -20 -20 -20 -20 -20
-20 -20 -20 -20 -20 -20 -20 -20 -20 -20 -20 -20 -20 -20 -20 -20 -20 -20 -19 6 5 -6 -8 -18 -15 -20 -20 -20 -20 -20 -20 -20 -20 -20 -20 -20 -20 -20 -20 -20 -20 -20 -20 -20 -20 -20 -20 -20 -20 -20 -20 -20 -20 -20
-20 -20 -20 -20 -20 -20 -20 -20 -20 -20 -20 -20 -20 -20 -20 -20 -20 -20 1 -20 -20 2 -12 -20 -15 -20 -20 -20 -20 -20 -20 -20 -20 -20 -20 -20 -20 -20 -20 -20 -20 -20 -20 -20 -20 -20 -20 -20 -20 -20 -20 -20 -20 -20
-20 -20 -20 -20 -20 -20 -20 -20 -20 -20 -20 -20 -20 -20 -20 -20 -20 -12 -15 -20 -20 -20 -20 -20 -20 -20 -20 -20 -20 -20 -20 -20 -20 -20 -20 -20 -20 -20 -20 -20 -20 -20 -20 -20 -20 -20 -20 -20 -20 -20 -20 -20 -20 -20
-20 -20 -20 -20 -20 -20 -20 -20 -20 -20 -20 -20 -20 -20 -20 -20 -10 0 -20 -20 -20 -20 -20 -20 -20 -20 -20 -20 -20 -20 -20 -20 -20 -20 -20 -20 -20 -20 -20 -20 -20 -20 -20 -20 -20 -20 -20 -20 -20 -20 -20 -20 -20 -20
-20 -20 -20 -20 -20 -20 -20 -20 -20 -20 -20 -20 -20 -20 -20 -17 -20 -20 -20 -20 -20 -20 -20 -20 -20 -20 -20 -20 -20 -20 -20 -20 -20 -20 -20 -20 -20 -20 -20 -20 -20 -20 -20 -20 -20 -20 -20 -20 -20 -20 -20 -20 -20 -20
-20 -20 -20 -20 -20 -16 -13 -12 -20 -20 -20 -20 -19 -15 -20 -12 -20 -20 -20 -8 6 -8 -20 -20 -19 -20 -20 -20 -20 -20 -20 -20 -20 -20 -20 -20 -20 -20 -20 -20 -20 -20 -20 -20 -20 -20 -20 -20 -20 -20 -20 -20 -20 -20
-20 -20 -20 -20 -16 -10 -18 -20 -20 -20 -20 -20 -20 -20 -20 -20 -20 -19 -20 -20 -20 -20 -20 -20 -20 -20 -20 -20 -20 -20 -20 -20 -20 -20 -20 -20 -20 -20 -20 -20 -20 -20 -20 -20 -20 -20 -20 -20 -20 -20 -20 -20 -20 -20
-20 -20 -20 -20 -20 -17 -17 -19 -20 -20 -20 -20 -20 -20 -20 -20 -20 -20 -20 -20 -20 -20 -19 -20 -20 -20 -20 -20 -20 -20 -20 -20 -20 -20 -20 -20 -20 -20 -20 -20 -20 -20 -20 -20 -20 -20 -20 -20 -20 -20 -20 -20 -20 -20
-20 -20 -20 -20 -20 -20 -20 -20 -20 -20 -20 -20 -20 -20 -20 -20 -20 -20 -20 -20 -19 -20 -20 -20 -20 -20 -20 -20 -20 -20 -20 -20 -20 -20 -20 -20 -20 -20 -20 -20 -20 -20 -20 -20 -20 -20 -20 -20 -20 -20 -20 -20 -20 -20
Wind_Speed
22 23 23 23 22 23 22 20 20 20 17 17 19 17 17 17 19 12 4 12 7 3 5 6 9 10 7 4 3 3 4 1 1 2 3 4 3 4 3 9 7 5 6 4 3 2 7 13 7 6 4 8 9 7
22 23 22 22 22 24 21 21 20 19 16 15 18 18 18 18 20 18 3 9 10 4 3 4 11 14 9 4 4 3 1 3 5 2 3 2 2 2 2 3 4 1 6 5 7 4 3 9 12 8 9 5 7 8
23 22 23 22 23 23 21 22 21 20 17 15 18 20 19 20 21 18 6 7 4 2 6 6 10 14 12 11 11 4 1 5 3 3 1 2 1 1 2 3 2 3 7 2 2 9 11 11 9 7 8 8 8 9
23 23 23 23 24 22 22 23 19 17 17 16 18 21 22 21 21 20 7 6 4 2 3 7 11 9 9 8 11 14 5 5 1 3 2 0 1 4 2 5 3 4 5 5 5 13 13 13 10 7 8 8 7 10
23 23 23 24 21 23 22 21 21 20 19 18 18 20 23 23 22 13 6 6 8 4 3 4 7 7 7 10 9 13 6 2 2 2 2 2 2 2 3 1 3 5 4 4 3 8 9 8 8 12 10 11 9 11
23 22 22 21 21 17 21 24 24 24 24 22 20 20 23 23 22 6 2 6 10 5 3 4 3 6 6 8 7 6 5 4 3 3 2 3 5 1 1 3 6 10 9 11 4 7 11 8 11 11 11 12 12 13
21 21 18 16 13 18 22 25 22 21 22 22 22 21 24 24 13 5 4 5 18 6 3 4 3 6 8 6 4 3 3 3 3 2 3 1 2 3 1 3 5 8 10 12 11 10 8 8 6 11 11 11 14 13
20 16 16 15 17 21 25 27 18 18 21 20 22 21 23 25 15 4 2 8 16 4 3 3 3 2 5 4 3 2 3 3 4 3 3 2 2 2 3 6 9 8 6 12 13 12 11 10 11 11 12 11 12 11
13 14 13 12 13 19 24 15 13 19 25 24 23 21 8 4 4 4 3 19 3 4 3 3 2 3 3 2 3 3 3 2 2 3 3 4 3 5 5 6 8 9 8 9 10 12 13 12 11 10 11 11 10 10
10 8 9 5 10 15 15 22 22 20 26 28 7 5 4 4 30 15 4 3 1 3 2 3 1 1 0 1 2 3 2 3 3 4 1 4 3 4 7 8 8 8 10 9 7 10 9 9 9 8 10 9 9 8
4 7 8 7 5 8 9 10 9 13 7 3 4 3 10 10 5 2 3 3 3 4 3 4 3 3 2 2 3 2 3 3 2 3 5 3 3 4 9 10 9 9 9 10 8 10 10 9 8 8 9 9 8 8
4 6 4 4 5 6 8 7 2 4 2 7 8 4 3 3 3 4 4 3 4 4 3 2 1 3 2 2 1 1 3 2 3 2 3 3 4 7 8 10 10 8 9 10 10 10 9 10 9 8 8 8 8 8
2 7 9 8 9 10 14 12 10 21 7 3 5 4 0 1 3 3 6 2 4 3 2 1 2 3 2 3 1 1 4 4 3 4 3 3 6 7 7 7 9 8 8 9 10 10 10 9 10 10 9 8 9 10
6 7 9 11 11 12 10 6 3 2 5 4 4 6 4 4 4 4 3 2 2 3 4 2 3 2 1 1 1 2 2 3 3 4 3 4 6 7 6 7 7 7 7 8 7 6 8 8 8 8 8 7 9 10
6 7 7 10 8 7 8 11 12 5 5 6 6 5 4 1 4 4 3 3 2 2 2 1 2 1 2 3 2 1 2 4 4 3 3 5 7 6 6 6 6 6 5 5 4 5 5 7 9 10 10 10 10 10
6 6 3 5 6 5 5 5 4 4 5 5 7 3 2 4 4 3 3 2 2 3 1 1 2 3 3 3 5 4 3 4 3 4 5 5 5 5 4 5 5 5 5 5 5 6 7 7 9 9 10 10 10 10
7 3 6 5 6 11 8 5 5 7 5 5 4 4 5 4 4 2 3 3 2 2 2 2 4 4 3 4 4 5 4 5 5 5 4 5 5 4 4 5 5 5 6 6 6 6 6 5 6 9 10 8 9 9
3 4 7 3 6 4 4 5 5 5 7 5 4 3 3 2 2 3 3 5 4 2 2 4 3 6 5 3 3 3 4 6 6 5 4 5 5 5 5 5 4 4 4 4 4 4 5 6 7 6 8 7 7 7
6 5 5 0 4 4 4 5 5 6 5 2 2 2 2 2 3 5 5 4 4 5 5 4 6 4 3 3 4 4 4 3 4 4 3 3 3 4 5 5 6 6 6 5 5 4 5 5 4 3 4 4 5 5
13 8 3 1 2 4 5 3 4 5 3 2 2 4 2 4 4 5 8 7 7 5 6 6 5 4 4 7 7 6 2 4 6 5 2 2 3 4 4 4 3 4 4 4 4 5 5 5 5 6 5 5 5 5
4 1 2 1 4 7 5 3 4 4 4 3 3 2 4 6 7 6 4 6 7 5 5 4 5 4 4 5 4 5 6 7 5 3 3 4 2 3 3 4 4 4 4 3 4 5 5 4 5 5 6 5 4 4
2 1 3 6 5 5 5 5 5 4 4 4 3 2 3 3 3 4 3 8 5 4 4 4 3 2 5 6 4 4 3 7 7 6 7 4 4 3 4 3 4 4 4 4 4 4 4 3 4 4 4 4 3 2
3 5 4 4 6 6 1 1 3 3 4 3 2 3 3 3 3 4 5 4 3 2 2 3 3 3 4 3 5 6 6 6 5 4 5 5 5 4 5 6 4 4 4 4 4 4 3 4 5 5 4 3 3 2
8 5 4 3 5 4 3 3 3 3 4 3 3 4 3 1 3 5 5 3 1 2 2 2 3 4 4 6 4 4 4 3 4 5 4 4 3 3 3 3 4 4 3 4 4 4 3 3 3 3 3 3 2 3
9 8 5 5 2 5 4 3 3 4 3 3 4 3 0 2 4 4 3 2 2 2 1 2 4 3 4 2 2 3 7 5 3 4 5 5 3 3 3 3 3 3 4 4 4 4 2 3 4 4 4 4 5 4
8 4 5 2 2 5 3 4 3 3 4 4 3 1 1 4 5 4 2 3 2 3 3 3 2 5 6 5 5 4 4 5 2 5 3 5 5 4 3 5 3 3 4 3 3 4 4 4 4 5 3 4 5 4
5 3 3 3 1 4 4 4 4 5 4 4 3 3 4 5 3 2 3 2 3 1 2 3 5 6 5 5 5 3 3 4 4 4 3 5 6 5 4 3 3 1 3 5 6 3 5 4 3 3 4 1 2 4
3 4 4 4 5 5 4 4 4 3 2 1 5 5 4 4 3 2 3 2 4 5 6 6 7 6 5 4 3 2 2 2 3 4 4 4 3 2 3 3 3 5 3 4 4 6 6 4 3 2 3 3 2 1
4 2 5 6 6 6 6 3 2 2 2 1 5 3 3 3 2 5 3 3 4 5 4 4 2 3 4 4 5 4 4 4 4 2 1 4 2 3 2 3 3 3 2 3 5 5 6 4 4 4 4 3 2 2
1 3 5 5 5 4 3 2 2 2 4 4 5 9 9 6 3 2 3 2 4 5 3 3 2 4 3 5 3 4 4 3 3 4 3 3 3 1 3 4 3 3 3 3 2 2 6 4 4 3 3 3 2 2
3 3 5 5 4 2 6 9 10 10 6 7 6 7 5 4 3 4 4 3 3 4 4 3 4 4 5 4 3 4 1 3 3 4 4 3 4 3 3 3 2 3 3 4 4 3 2 3 3 3 2 3 2 3
3 3 5 6 3 1 3 2 3 4 2 3 2 3 2 4 3 1 3 2 1 3 2 6 6 2 2 3 3 4 6 3 4 3 6 4 3 4 3 2 2 3 4 4 4 2 3 3 3 4 3 4 3 3
5 7 5 5 3 4 4 3 3 3 4 3 2 2 3 4 4 2 2 2 2 6 7 5 3 4 5 6 6 5 5 4 5 7 6 6 6 6 4 3 4 4 5 3 3 3 4 5 4 4 4 3 3 4
Wind_Direction
286 289 293 292 291 293 291 284 282 281 266 262 228 220 215 210 198 175 182 184 199 247 261 259 253 254 271 264 233 268 58 78 4 163 183 236 238 262 323 228 161 154 166 184 189 234 255 340 71 51 269 21 27 4
284 289 291 291 292 292 286 284 283 275 264 255 221 215 209 204 195 177 195 173 188 225 300 325 275 268 267 244 265 300 91 151 210 178 237 300 328 343 159 298 98 98 191 172 172 181 119 53 90 37 47 54 7 4
285 290 291 289 289 286 282 283 277 268 258 240 218 214 206 202 194 187 182 152 169 178 264 251 248 252 233 226 204 152 255 261 218 184 95 249 294 30 321 286 98 48 9 323 73 130 109 106 89 54 33 38 20 22
289 290 289 289 288 283 284 279 272 259 251 236 220 210 204 199 194 184 184 156 161 163 226 268 229 229 213 208 158 229 204 196 160 88 97 14 278 26 308 278 92 12 352 313 93 97 93 60 52 30 35 24 40 40
289 289 291 290 286 285 280 272 262 250 237 228 222 208 201 194 194 179 182 178 190 182 247 267 282 262 199 191 194 196 219 162 102 70 81 249 271 112 195 268 52 10 27 335 64 328 90 84 49 31 28 12 19 55
290 292 290 288 289 288 291 284 265 247 236 224 214 206 194 188 178 143 140 209 203 204 300 292 301 279 193 167 184 202 192 161 106 116 236 275 199 229 312 98 50 31 72 51 37 322 62 87 64 33 28 2 62 56
291 291 293 296 297 303 304 304 288 248 227 208 197 195 184 177 160 162 180 184 175 173 240 279 288 274 163 147 174 152 104 108 93 165 202 243 321 29 216 88 65 23 3 30 10 355 50 38 64 45 33 15 58 61
293 297 299 298 292 307 318 311 276 220 199 177 174 176 168 163 127 212 296 144 152 159 252 248 240 273 149 160 135 100 119 107 152 179 227 208 146 87 90 88 60 27 3 32 358 353 27 46 50 53 44 24 49 49
294 304 300 291 308 330 332 356 53 128 136 146 149 136 97 84 126 139 290 145 180 161 208 194 222 186 335 58 99 97 108 136 312 184 221 109 65 44 65 70 58 38 27 4 352 30 28 34 24 34 57 43 47 49
309 327 337 356 350 350 358 63 76 104 113 107 85 73 118 155 110 99 62 79 108 267 228 243 155 143 330 52 106 117 138 149 186 219 71 69 80 77 76 70 61 47 40 26 19 25 21 24 16 59 59 55 53 59
10 333 313 329 52 3 340 16 58 76 64 60 90 96 107 94 71 103 115 138 150 217 217 228 175 143 135 97 143 179 170 160 155 215 176 102 91 77 85 76 59 47 48 42 46 51 40 29 36 69 69 65 61 57
12 316 317 349 43 26 185 222 268 1 6 105 104 95 77 93 137 143 167 178 183 210 19 75 10 99 88 83 94 261 127 73 191 132 127 87 89 70 73 73 67 55 52 55 52 56 49 36 50 67 74 74 75 81
8 46 39 46 42 32 68 175 235 119 93 99 63 68 242 344 99 112 164 207 102 23 30 19 59 97 92 46 21 260 145 177 120 59 78 70 99 71 59 73 66 56 60 64 60 63 64 54 46 55 60 54 60 64
96 78 59 47 45 49 67 88 181 202 66 74 78 45 52 36 55 33 21 35 42 22 17 359 60 78 59 102 329 98 19 125 153 103 87 94 90 80 69 76 81 69 67 71 69 58 60 62 63 60 62 64 76 75
137 119 71 26 27 37 52 70 57 53 55 53 31 54 67 90 53 20 352 82 37 311 320 103 89 61 32 91 13 115 40 65 35 70 79 85 83 78 66 67 80 77 75 78 66 75 78 77 76 71 65 69 71 71
180 139 66 329 354 37 83 93 47 67 64 60 37 50 1 90 39 10 8 14 8 326 286 274 109 82 48 50 49 20 11 49 40 85 103 89 77 80 78 73 63 80 79 76 75 79 80 81 87 85 74 66 68 78
172 87 185 234 95 54 62 75 51 51 61 53 45 4 42 61 51 353 344 327 274 249 50 52 61 28 101 70 55 14 34 98 99 82 72 89 104 86 79 87 81 79 74 72 85 101 103 104 97 91 85 74 74 69
80 159 192 246 350 28 39 52 76 73 64 38 71 53 51 15 25 8 342 350 5 47 48 57 54 40 32 49 80 95 77 72 68 84 80 67 66 72 89 92 86 94 94 98 109 116 115 108 103 106 112 109 96 83
133 143 171 38 28 77 69 41 74 84 69 109 106 85 46 53 28 11 355 352 45 35 63 51 58 45 23 48 107 109 111 112 110 94 82 76 90 93 87 79 73 72 91 97 94 78 75 80 105 120 123 122 120 126
98 122 167 285 292 86 83 67 76 83 87 110 70 52 46 54 48 33 31 24 43 58 48 44 47 18 29 47 52 48 52 124 130 129 129 108 119 145 144 129 126 125 108 104 96 96 87 76 63 61 68 83 95 92
138 52 242 206 62 49 84 92 68 108 137 97 162 157 108 81 50 34 42 8 46 42 68 75 81 58 31 38 41 56 41 45 86 90 108 104 55 81 62 46 92 98 106 100 94 80 72 77 80 83 81 77 74 69
60 0 74 26 73 59 66 15 107 130 86 133 144 82 95 60 48 38 56 37 64 29 20 76 82 74 52 38 15 31 53 60 59 61 46 67 68 46 50 61 77 69 59 65 82 80 77 92 103 96 91 89 80 75
3 39 39 63 72 65 144 196 91 127 104 128 105 74 54 51 81 111 72 56 74 29 74 81 80 78 89 47 49 33 41 59 58 64 71 66 60 57 61 41 47 85 82 70 86 84 71 92 103 110 113 105 98 78
29 53 47 64 73 95 55 32 57 65 58 72 75 66 44 81 119 71 76 73 121 161 120 175 138 121 93 67 54 30 6 75 75 44 45 84 83 59 73 73 58 44 67 88 90 91 79 58 30 88 110 118 124 110
71 341 63 39 72 85 84 62 41 65 91 89 77 62 353 60 72 78 97 129 102 73 65 59 73 89 112 126 77 34 24 19 77 81 23 28 33 78 86 75 58 42 14 81 78 86 65 59 55 54 51 72 96 112
73 318 42 48 333 96 135 112 111 107 90 71 82 153 68 71 69 77 85 141 116 79 57 40 99 105 71 64 77 50 13 354 59 81 35 39 41 38 25 140 89 4 15 34 125 118 99 89 97 101 89 79 58 77
79 36 356 316 24 78 71 49 47 76 87 109 159 122 90 77 95 121 100 63 96 77 67 29 49 90 103 92 78 63 50 26 67 87 78 64 58 56 66 86 78 312 5 33 28 63 136 139 143 156 152 148 115 112
69 44 90 339 47 20 85 57 59 83 97 351 61 54 99 123 136 108 107 119 100 86 78 65 55 63 72 75 85 91 63 51 42 74 69 57 59 79 75 65 58 72 73 60 57 47 40 57 79 90 104 137 144 99
61 74 76 32 46 43 27 49 88 30 317 71 106 94 98 60 58 104 111 117 107 104 100 94 37 74 77 68 60 50 39 34 58 57 325 130 71 332 17 59 51 27 73 65 62 107 101 99 90 79 100 92 124 149
69 84 87 55 62 51 8 44 104 3 31 76 96 99 84 74 52 67 80 97 114 105 115 115 116 117 136 140 125 48 19 41 56 100 96 113 184 247 50 41 31 359 19 83 112 10 26 27 8 15 13 346 9 40
111 96 78 64 83 55 92 83 70 64 53 74 59 89 102 123 34 15 50 86 102 97 94 89 65 49 79 57 73 124 67 328 35 33 42 87 82 74 54 55 28 7 20 42 43 61 72 18 9 342 39 55 54 47
56 85 117 103 123 214 0 253 111 110 154 78 96 109 145 97 99 280 322 17 117 97 31 116 108 93 112 108 88 71 88 95 56 52 43 37 42 31 19 27 30 56 43 22 360 30 58 56 26 19 40 62 55 39
82 77 85 102 107 190 236 117 92 85 47 61 49 66 51 105 128 177 301 51 303 124 114 107 110 98 102 109 115 107 98 106 94 79 74 72 63 48 49 27 20 28 25 13 6 51 64 70 56 26 360 31 63 45